Location: Góry Miechowskie
(50.3599°N, 20.1803°E)
Time: 11:58:40
(UTC+00:00)

Vanguard 1 Rocket - Pass Details

Date: 21 September 2024
Orbit: 650 x 4218 km, 34.3° (Epoch: 12 October)

Event Time Altitude Azimuth Distance (km) Brightness Sun altitude
Rises 00:58:48 0° 222° (SW) 4,801 - -30.3°
Reaches altitude 10° 01:01:44 10° 214° (SSW) 4,196 - -30.0°
Exits shadow 01:07:56 31° 183° (S) 3,548 9.9 -29.3°
Maximum altitude 01:12:30 37° 152° (SSE) 3,729 10.3 -28.7°
Drops below altitude 10° 01:30:32 10° 96° (E) 6,963 12.4 -26.6°
Sets 01:37:20 0° 90° (E) 8,298 13.1 -25.7°
